Regional Weather Roundup
Issued by NWS

Home | Current Version | Previous Version | Graphics & Text | Print | Product List | Glossary On
Versions: 1 2 3 4 5 6 7 8 9 10 11 12 13 14 15 16 17 18 19 20 21 22 23 24 25 26 27 28 29 30 31 32 33 34 35 36 37 38 39 40 41 42 43 44 45 46 47 48 49 50
000
ASUS43 KDTX 250310
RWRMI
MICHIGAN HOURLY REGIONAL WEATHER ROUNDUP
NATIONAL WEATHER SERVICE DETROIT/PONTIAC MI
1100 PM EDT THU JUL 24 2014

NOTE: "FAIR" INDICATES FEW OR NO CLOUDS BELOW 12,000 FEET WITH NO
SIGNIFICANT WEATHER AND/OR OBSTRUCTION TO VISIBILITY.

MIZ047>049-052>055-059>063-066>070-074>076-081>083-250400-
SOUTHEAST LOWER MICHIGAN

CITY           SKY/WX    TMP DP  RH WIND       PRES   REMARKS
ADRIAN         CLEAR     59  51  75 CALM      30.08R
ALMA           CLEAR     58  53  80 W3        30.07S
ANN ARBOR      CLEAR     54  49  83 CALM      30.07S
BAD AXE        CLEAR     54  49  85 CALM      30.07S
DETROIT CITY   CLEAR     66  51  58 CALM      30.08R
DETROIT        MOCLDY    68  51  54 E6        30.07S
FLINT          CLEAR     56  50  80 S5        30.07R
GROSSE ILE     PTCLDY    68  55  64 CALM      30.06S
HILLSDALE      CLEAR     55  53  95 CALM      30.10R
HOWELL         CLEAR     56  52  85 CALM      30.07S

CITY           SKY/WX    TMP DP  RH WIND       PRES   REMARKS
JACKSON        CLEAR     58  54  86 CALM      30.08R
LAMBERTVILLE   CLEAR     59  54  82 CALM      30.08S
LANSING        CLEAR     61  54  77 CALM      30.08R
LAPEER         NOT AVBL
MASON          CLEAR     58  53  83 CALM      30.08R
MONROE         CLEAR     61  54  77 CALM      30.06S
MT. CLEMENS    CLEAR     61  48  63 CALM      30.07R
PONTIAC        PTCLDY    60  51  72 CALM      30.07S
PORT HOPE        N/A     59  50  72 S3        30.05S
PORT HURON     CLEAR     50  50 100 CALM      30.09R
TRI CITIES     CLEAR     63  52  67 S7        30.06S
YPSILANTI      CLEAR     60  50  69 SE5       30.07S
$$
MIZ043>046-050>051-056>058-064>065-071>073-077>080-250400-
SOUTHWEST LOWER MICHIGAN

CITY           SKY/WX    TMP DP  RH WIND       PRES   REMARKS
BATTLE CREEK   CLEAR     61  52  72 W6        30.10R
BENTON HARBOR  CLEAR     53  50  89 CALM      30.08F
BIG RAPIDS     CLEAR     56  49  77 CALM      30.07S
COLDWATER      CLOUDY    60  55  84 W3        30.09R
HOLLAND        CLEAR     57  50  77 E5        30.08F
GRAND RAPIDS   PTCLDY    65  48  54 NW6       30.09R
KALAMAZOO      PTCLDY    61  50  67 N3        30.10R
MARSHALL       PTCLDY    56  52  85 CALM      30.08R
MUSKEGON       MOCLDY    58  49  72 SE5       30.07F
$$
MIZ016>042-250400-
NORTHERN LOWER MICHIGAN

CITY           SKY/WX    TMP DP  RH WIND       PRES   REMARKS
ALPENA         CLEAR     56  52  86 CALM      30.04F
BEAVER ISLAND  CLEAR     56  50  79 SW6       30.03S
BELLAIRE       CLEAR     52  50  93 CALM      30.03S
CADILLAC       CLEAR     53  50  89 CALM      30.07S
CHARLEVOIX     CLEAR     58  49  73 S5        30.06S
FRANKFORT      CLEAR     54  49  83 CALM      30.05S
GAYLORD        CLEAR     56  49  77 CALM      30.05F
GRAYLING       CLEAR     54  53  97 CALM      30.07S
HARBOR SPRINGS CLEAR     56  51  84 CALM      30.03F
HOUGHTON LAKE  CLEAR     57  50  77 NW3       30.06S
MANISTEE       CLEAR     52  46  82 CALM      30.06S
OSCODA         CLEAR     58  51  77 CALM      30.04S
PELLSTON       MOCLDY    52  49  89 CALM      30.03F
TRAVERSE CITY  CLEAR     60  49  66 SE3       30.03S
$$
MIZ007>008-015-250400-
EASTERN UPPER MICHIGAN

CITY           SKY/WX    TMP DP  RH WIND       PRES   REMARKS
KINROSS        CLEAR     57  48  72 S6        30.02F
MACKINAC ISLAN CLEAR     58  52  79 SW7       30.02F
NEWBERRY       CLEAR     55  47  75 SW10      30.01S
S. S. MARIE    CLEAR     55  48  77 CALM      30.01S
$$
MIZ004>006-011>014-085-250400-
CENTRAL UPPER MICHIGAN

CITY           SKY/WX    TMP DP  RH WIND       PRES   REMARKS
MANISTIQUE     CLEAR     55  50  83 SW6       30.01S
ESCANABA       CLEAR     63  52  67 S7        30.00S
MENOMINEE      PTCLDY    63  46  55 S8        30.00S
SAWYER-GWINN   PTCLDY    61  52  73 S6        30.01R
$$
MIZ001>003-009>011-084-250400-
WESTERN UPPER MICHIGAN

CITY           SKY/WX    TMP DP  RH WIND       PRES   REMARKS
IRON MOUNTAIN  MOCLDY    67  51  56 SW6       29.99R
HOUGHTON       PTCLDY    55  51  86 N3        29.97S
COPPER HARBOR    N/A     60  49  66 SW7       29.96S
IRONWOOD       MOCLDY    63  61  94 CALM      29.97
$$

ABBREVIATIONS USED IN REMARKS
   TC - TEMPERATURE IN CELSIUS
  WCI - WIND CHILL INDEX
   HX - HEAT INDEX
  VSB - VISIBILITY




USA.gov is the U.S. government's official web portal to all federal, state and local government web resources and services.